Regional Weather Roundup
Issued by NWS

Home | Current Version | Previous Version | Graphics & Text | Print | Product List | Glossary On
Versions: 1 2 3 4 5 6 7 8 9 10 11 12 13 14 15 16 17 18 19 20 21 22 23 24 25 26 27 28 29 30 31 32 33 34 35 36 37 38 39 40 41 42 43 44 45 46 47 48 49 50
744
ASUS45 KBOU 221607
RWRCO

WEATHER ROUNDUP FOR COLORADO
NATIONAL WEATHER SERVICE DENVER/BOULDER CO
1000 AM MDT FRI SEP 22 2017

NOTE: "FAIR" INDICATES FEW OR NO CLOUDS BELOW 12000 FEET WITH NO
SIGNIFICANT WEATHER AND/OR OBSTRUCTIONS TO VISIBILITY.

COZ001>005-013-030-031-221700-
...NORTHWEST COLORADO...

CITY           SKY/WX    TMP DP  RH WIND       PRES   REMARKS
CRAIG          FAIR      59  35  40 CALM      29.88F
HAYDEN         FAIR      52  35  52 CALM      29.92R
MEEKER         FAIR      65  28  24 S18G29    29.86R
RABBIT EARS PA PTSUNNY   45  36  70 S8        30.09S
STEAMBOAT SPGS PTSUNNY   55  35  47 S20G30    29.95R
WALDEN         FAIR      57  34  41 SW28G38   29.98R
$$

COZ006>008-011-221700-
...WEST CENTRAL VALLEYS...

CITY           SKY/WX    TMP DP  RH WIND       PRES   REMARKS
GRAND JUNCTION FAIR      71  32  23 S20G30    29.79F
MONTROSE       LGT RAIN  65  41  41 E6        29.88F
EAGLE          NOT AVBL
RIFLE          LGT RAIN  63  48  58 SE15      29.85F
DELTA          PTSUNNY   69  37  31 S12G18    29.85S
NUCLA          FAIR      64  30  27 SW22G28   29.93R
$$

COZ017>023-064>068-221700-
...SOUTHWEST COLORADO...

CITY           SKY/WX    TMP DP  RH WIND       PRES   REMARKS
DURANGO        CLOUDY    62  41  46 S9        30.01S
CORTEZ         CLOUDY    66  36  32 S13       29.93S
PAGOSA SPRINGS LGT RAIN  59  36  43 CALM      30.08F
TELLURIDE      PTSUNNY   50  37  61 SE17G30   30.09R
WOLF CREEK PAS CLOUDY    36  34  93 S13G29    30.31S
$$

COZ009-010-012-014-032>034-037-058>063-221700-
...CENTRAL COLORADO...

CITY           SKY/WX    TMP DP  RH WIND       PRES   REMARKS
ASPEN          PTSUNNY   57  34  41 CALM      29.95F
BUENA VISTA    CLOUDY    61  32  33 SE14G22   30.01S
COPPER MTN     FAIR      48  23  37 S22G39    30.19S
BERTHOUD PASS  FAIR      41  32  70 SW14G32   30.22R
COTTONWOOD PAS CLOUDY    57  32  38 S16G25    30.12R
GUNNISON       FAIR      61  34  36 W7        29.98F
KREMMLING      FAIR      64  32  29 CALM      29.96S
LEADVILLE      CLOUDY    51  26  37 S17G26    30.08S
SALIDA         CLOUDY    65  33  30 S10G16    30.07S
SUNLIGHT       LGT RAIN  37  36  93 SW15G26   30.13S
WILKERSON PASS FAIR      50  27  40 SW13G23   30.19S
$$

COZ069>075-221700-
...SAN LUIS VALLEY/SANGRE DE CRISTO MOUNTAINS...

CITY           SKY/WX    TMP DP  RH WIND       PRES   REMARKS
ALAMOSA        FAIR      66  36  32 S23G31    30.02F
DEL NORTE      PTSUNNY   65  32  29 SW10G28   30.04S
LA VETA PASS   FAIR      54  32  43 S36G58    30.24S
SAGUACHE       FAIR      61  36  39 SE9       30.03F
$$

COZ035-036-038>040-221700-
...NORTHERN COLORADO FRONT RANGE...

CITY           SKY/WX    TMP DP  RH WIND       PRES   REMARKS
DENVER INTL AP FAIR      61  37  41 CALM      29.83F
DMNS CITY PARK   N/A     61  37  40 NE7G14    29.83F
AURORA         MOSUNNY   63  38  39 N3        29.84F
FRONT RANGE AP MOSUNNY   63  39  42 NE5       29.85F
ERIE MUNI ARPT FAIR      60  36  40 CALM      29.89S
BOULDER MUN AP FAIR      61  36  39 NE5       29.85R
CENTENNIAL     FAIR      62  39  42 N6        29.85F
BROOMFIELD     MOSUNNY   59  37  44 E6        29.86S
FORT COLLINS   FAIR      60  39  45 E7        29.84S
LONGMONT       FAIR      64  39  40 CALM      29.86R
$$

COZ041-046-047-076>085-087-088-221700-
...PIKES PEAK/PALMER DIVIDE AND SOUTHERN FOOTHILLS...

CITY           SKY/WX    TMP DP  RH WIND       PRES   REMARKS
COLO. SPRINGS  PTSUNNY   74  36  25 S22G29    29.92S
A. F. ACADEMY  FAIR      73  31  21 S24       29.89S
SCHRIEVER AFB  FAIR      73  33  23 S16G25    29.93S
CHEYENNE MTN   FAIR      68  32  26 SE25G33   29.87R
ELLICOTT         N/A    N/A N/A N/A S9        29.91S
FALCON         FAIR      71  31  22 S28G36    29.96S
FORT CARSON    NOT AVBL
LIMON            N/A    N/A N/A N/A MISG      29.87R
MONUMENT HILL  FAIR      68  32  26 S15       29.95S
CANON CITY     SUNNY     68  43  40 CALM      29.87R
WALSENBURG     FAIR      79  30  17 SW25G40   29.92F
TRINIDAD       FAIR      74  37  26 SW14G24   29.94R
$$

COZ042>045-048>051-090-091-221700-
...NORTHEAST COLORADO...

CITY           SKY/WX    TMP DP  RH WIND       PRES   REMARKS
GREELEY ARPT   FAIR      62  41  46 E9        29.83S
AKRON          FAIR      64  38  38 E6        29.83R
BURLINGTON     FAIR      81  46  29 S18       29.83S
WRAY           FAIR      72  34  25 CALM      29.80R
YUMA           FAIR      61  37  41 N3        29.81S
STERLING       FAIR      61  43  51 NE6       29.82S
HOLYOKE        FAIR      64  41  42 N6        29.81R
FORT MORGAN    FAIR      63  37  39 NE7       29.84S
$$

COZ086-089-092>099-221700-
...SOUTHEAST COLORADO...

CITY           SKY/WX    TMP DP  RH WIND       PRES   REMARKS
PUEBLO         FAIR      79  38  22 S9        29.82S
LA JUNTA       FAIR      83  41  22 S20       29.83R
LAMAR          FAIR      83  45  26 SW20G28   29.81R
SPRINGFIELD      N/A     76  58  53 S21G28    29.90S
$$




USA.gov is the U.S. government's official web portal to all federal, state and local government web resources and services.